Regional Weather Roundup
Issued by NWS

Home | Current Version | Previous Version | Graphics & Text | Print | Product List | Glossary On
Versions: 1 2 3 4 5 6 7 8 9 10 11 12 13 14 15 16 17 18 19 20 21 22 23 24 25 26 27 28 29 30 31 32 33 34 35 36 37 38 39 40 41 42 43 44 45 46 47 48 49 50
000
ASUS43 KFSD 240110
RWRSD

WEATHER ROUNDUP FOR SOUTH DAKOTA
NATIONAL WEATHER SERVICE SIOUX FALLS SD
800 PM CDT SAT MAY 23 2015

NOTE: "FAIR" INDICATES FEW OR NO CLOUDS BELOW 12,000 FEET WITH NO
SIGNIFICANT WEATHER AND/OR OBSTRUCTIONS TO VISIBILITY.


SDZ001>005-009-010-012>017-240200-
NORTHWEST AND NORTH CENTRAL SOUTH DAKOTA

CITY           SKY/WX    TMP DP  RH WIND       PRES   REMARKS
BUFFALO          N/A     58  46  64 E12       29.99R
FAITH            N/A     56  48  74 E12       30.06S
MOBRIDGE       CLOUDY    59  54  83 E10       30.06S
$$

SDZ012>016-024>037-041>051-057-063-072>074-240200-
SOUTHWEST AND SOUTH CENTRAL SOUTH DAKOTA

CITY           SKY/WX    TMP DP  RH WIND       PRES   REMARKS
RAPID CTY ARPT CLOUDY    56  52  86 E12       30.02R
PIERRE         CLOUDY    60  54  80 E7        30.04S
CUSTER         CLOUDY    48  46  93 NE8       30.04S FOG
ELLSWORTH AFB  CLOUDY    57  52  82 E12       30.02
PHILIP         CLOUDY    58  53  84 E10       30.03R
PINE RIDGE     CLOUDY    55  52  89 E8        29.98F
SPEARFISH      CLOUDY    54  48  82 SE13      30.05R
WINNER         CLOUDY    59  53  80 SE10      30.05R
$$

SDZ004>011-016>023-039-040-240200-
NORTHEAST SOUTH DAKOTA

CITY           SKY/WX    TMP DP  RH WIND       PRES   REMARKS
ABERDEEN       CLOUDY    65  51  60 SE6       30.08S
WATERTOWN      CLOUDY    65  49  56 E7        30.09S
BROOKINGS      CLOUDY    66  50  55 SE3       30.08S
SISSETON         N/A     67  49  52 SE9       30.09S
$$

SDZ017-020-022-023-036>040-048>070-240200-
SOUTHEAST SOUTH DAKOTA

CITY           SKY/WX    TMP DP  RH WIND       PRES   REMARKS
SIOUX FALLS    CLOUDY    63  54  72 S7        30.07R
HURON          CLOUDY    64  53  67 S6        30.08R
CHAMBERLAIN    RAIN      59  54  85 SE8       30.06S
MITCHELL       CLOUDY    63  54  72 S6        30.08R
YANKTON        CLOUDY    61  54  77 SE10      30.06S
$$

ABBREVIATIONS USED IN REMARKS
   TC - TEMPERATURE IN CELSIUS
  WCI - WIND CHILL INDEX
   HX - HEAT INDEX
  VSB - VISIBILITY



USA.gov is the U.S. government's official web portal to all federal, state and local government web resources and services.